EW7230 Weather Reports


Display with metric or nautical units.
time (UTC)temp
F
wind
direction
speed
MPH
gust
MPH
rain 1hr
in
rain 24hr
in
rain mn
in
humidity
%
barometer
mb
20260506170100 53 283 0.0 0.0 0.00 0.00 0.00 29 1008.7
20260506165600 53 267 0.0 0.0 0.00 0.00 0.00 28 1008.7
20260506165056 52 288 0.0 0.0 0.00 0.00 0.00 27 1008.6
20260506164559 52 301 0.0 3.0 0.00 0.00 0.00 26 1008.6
20260506164055 52 313 0.0 3.0 0.00 0.00 0.00 28 1008.6
20260506163555 52 304 0.0 8.0 0.00 0.00 0.00 28 1008.6
20260506163116 53 332 0.0 8.0 0.00 0.00 0.00 28 1008.6
20260506162554 53 314 0.0 8.0 0.00 0.00 0.00 28 1008.5
20260506162054 53 258 0.0 8.0 0.00 0.00 0.00 28 1008.5
20260506161554 53 275 0.0 4.0 0.00 0.00 0.00 30 1008.5
20260506161053 53 340 0.0 4.0 0.00 0.00 0.00 28 1008.5
20260506160553 53 336 0.0 14.0 0.00 0.00 0.00 30 1008.5
20260506160053 53 286 0.0 14.0 0.00 0.00 0.00 30 1008.4
20260506155552 54 263 0.0 8.0 0.00 0.00 0.00 29 1008.5
20260506155053 53 325 0.0 8.0 0.00 0.00 0.00 31 1008.5
20260506154554 53 291 0.0 7.0 0.00 0.00 0.00 30 1008.3
20260506154055 53 303 0.0 9.0 0.00 0.00 0.00 31 1008.3
20260506153552 53 269 0.0 10.0 0.00 0.00 0.00 30 1008.3
20260506153057 53 347 0.0 10.0 0.00 0.00 0.00 29 1008.3
20260506152552 53 284 0.0 7.0 0.00 0.00 0.00 32 1008.3
20260506152050 53 277 0.0 5.0 0.00 0.00 0.00 29 1008.2
20260506151547 53 241 0.0 5.0 0.00 0.00 0.00 30 1008.2
20260506151047 54 320 0.0 3.0 0.00 0.00 0.00 30 1008.1
20260506150546 54 300 0.0 3.0 0.00 0.00 0.00 29 1008.2
20260506150045 54 291 0.0 11.0 0.00 0.00 0.00 29 1008.3
20260506145549 55 259 1.0 11.0 0.00 0.00 0.00 27 1008.3
20260506145044 55 294 0.0 5.0 0.00 0.00 0.00 29 1008.3
20260506144546 56 276 0.0 4.0 0.00 0.00 0.00 29 1008.4
20260506144042 56 261 0.0 4.0 0.00 0.00 0.00 28 1008.3
20260506143542 56 281 0.0 2.0 0.00 0.00 0.00 26 1008.4
20260506143042 56 246 0.0 2.0 0.00 0.00 0.00 25 1008.3
20260506142545 56 286 0.0 7.0 0.00 0.00 0.00 26 1008.3
20260506142040 56 265 0.0 7.0 0.00 0.00 0.00 25 1008.3
20260506141540 56 283 0.0 2.0 0.00 0.00 0.00 24 1008.2
20260506141039 57 308 0.0 7.0 0.00 0.00 0.00 26 1008.3
20260506140638 57 242 1.0 7.0 0.00 0.00 0.00 26 1008.2
20260506140037 57 210 0.0 3.0 0.00 0.00 0.00 26 1008.2
20260506135536 57 253 0.0 2.0 0.00 0.00 0.00 25 1008.4
20260506135034 56 231 0.0 1.0 0.00 0.00 0.00 28 1008.4
20260506134533 55 259 0.0 1.0 0.00 0.00 0.00 29 1008.4
20260506134032 54 329 0.0 4.0 0.00 0.00 0.00 28 1008.3
20260506133532 54 229 0.0 6.0 0.00 0.00 0.00 29 1008.4
20260506133033 54 5 0.0 13.0 0.00 0.00 0.00 27 1008.4
20260506132529 54 343 1.0 13.0 0.00 0.00 0.00 28 1008.4
20260506132031 53 276 0.0 3.0 0.00 0.00 0.00 27 1008.6
20260506131535 53 281 0.0 3.0 0.00 0.00 0.00 28 1008.6
20260506131028 53 267 0.0 3.0 0.00 0.00 0.00 27 1008.5
20260506130529 53 265 0.0 5.0 0.00 0.00 0.00 26 1008.4
20260506130026 53 344 0.0 5.0 0.00 0.00 0.00 30 1008.5
20260506125526 53 323 0.0 3.0 0.00 0.00 0.00 28 1008.5
20260506125025 54 271 0.0 1.0 0.00 0.00 0.00 30 1008.5
20260506124525 53 259 0.0 9.0 0.00 0.00 0.00 28 1008.5
20260506124026 53 321 0.0 9.0 0.00 0.00 0.00 28 1008.6
20260506123525 53 289 0.0 4.0 0.00 0.00 0.00 29 1008.6
20260506123025 53 355 0.0 8.0 0.00 0.00 0.00 28 1008.6
20260506122527 53 346 0.0 9.0 0.00 0.00 0.00 27 1008.6
20260506122023 53 327 0.0 9.0 0.00 0.00 0.00 30 1008.8
20260506121521 53 243 0.0 3.0 0.00 0.00 0.00 28 1008.8
20260506121019 53 269 0.0 6.0 0.00 0.00 0.00 27 1008.9
20260506120519 53 355 0.0 6.0 0.00 0.00 0.00 29 1008.9
20260506120019 53 350 0.0 5.0 0.00 0.00 0.00 29 1008.9
20260506115519 52 327 0.0 12.0 0.00 0.00 0.00 29 1008.9
20260506115016 52 324 0.0 0.0 0.00 0.00 0.00 29 1008.9
20260506114516 52 360 0.0 9.0 0.00 0.00 0.00 31 1008.9
20260506114014 51 5 1.0 9.0 0.00 0.00 0.00 28 1008.9
20260506113514 51 320 0.0 6.0 0.00 0.00 0.00 30 1009.0
20260506113013 51 355 0.0 2.0 0.00 0.00 0.00 30 1009.0
20260506112516 51 312 0.0 2.0 0.00 0.00 0.00 29 1009.0
20260506112011 51 351 0.0 9.0 0.00 0.00 0.00 32 1009.1
20260506111520 51 343 0.0 8.0 0.00 0.00 0.00 31 1009.2
20260506111009 51 124 0.0 8.0 0.00 0.00 0.00 32 1009.2
20260506110508 51 355 0.0 0.0 0.00 0.00 0.00 31 1009.3
20260506110010 50 65 0.0 0.0 0.00 0.00 0.00 30 1009.4
20260506105508 51 329 0.0 2.0 0.00 0.00 0.00 32 1009.4
20260506105011 51 355 0.0 2.0 0.00 0.00 0.00 30 1009.4
20260506104505 51 5 0.0 1.0 0.00 0.00 0.00 29 1009.4
20260506104007 50 92 0.0 1.0 0.00 0.00 0.00 33 1009.4
20260506103503 50 328 0.0 0.0 0.00 0.00 0.00 31 1009.4
20260506103003 50 340 0.0 4.0 0.00 0.00 0.00 34 1009.5
20260506102503 50 273 0.0 4.0 0.00 0.00 0.00 33 1009.6
20260506102101 50 16 0.0 0.0 0.00 0.00 0.00 33 1009.7
20260506101632 51 136 0.0 0.0 0.00 0.00 0.00 36 1009.7
20260506101100 51 312 0.0 1.0 0.00 0.00 0.00 32 1009.8
20260506100557 51 223 0.0 1.0 0.00 0.00 0.00 34 1009.8
20260506100058 50 277 0.0 0.0 0.00 0.00 0.00 36 1009.8
20260506095556 51 285 0.0 0.0 0.00 0.00 0.00 36 1009.9
20260506095055 50 82 0.0 0.0 0.00 0.00 0.00 40 1009.9
20260506094557 50 252 0.0 0.0 0.00 0.00 0.00 36 1009.9
20260506094051 49 218 0.0 4.0 0.00 0.00 0.00 37 1009.9
20260506093552 49 234 0.0 4.0 0.00 0.00 0.00 38 1009.9
20260506093053 49 13 0.0 4.0 0.00 0.00 0.00 37 1010.0
20260506092548 49 259 0.0 0.0 0.00 0.00 0.00 39 1010.1
20260506092047 49 221 0.0 0.0 0.00 0.00 0.00 37 1010.1
20260506091546 49 41 0.0 4.0 0.00 0.00 0.00 36 1010.2
20260506091045 49 238 0.0 4.0 0.00 0.00 0.00 38 1010.2
20260506090544 49 218 0.0 0.0 0.00 0.00 0.00 40 1010.2
20260506090056 48 238 0.0 2.0 0.00 0.00 0.00 39 1010.2
20260506085543 48 216 0.0 0.0 0.00 0.00 0.00 41 1010.2
20260506085041 48 202 0.0 0.0 0.00 0.00 0.00 39 1010.2
20260506084545 48 214 0.0 0.0 0.00 0.00 0.00 37 1010.2
20260506084040 48 229 0.0 0.0 0.00 0.00 0.00 39 1010.2
20260506083540 47 246 0.0 1.0 0.00 0.00 0.00 39 1010.3
20260506083038 47 227 0.0 1.0 0.00 0.00 0.00 41 1010.4
20260506082538 47 265 0.0 0.0 0.00 0.00 0.00 38 1010.4
20260506082034 47 277 0.0 0.0 0.00 0.00 0.00 44 1010.3
20260506081537 46 205 0.0 0.0 0.00 0.00 0.00 42 1010.4
20260506081031 46 227 0.0 3.0 0.00 0.00 0.00 47 1010.4
20260506080530 46 206 0.0 3.0 0.00 0.00 0.00 45 1010.5
20260506073526 44 337 0.0 0.0 0.00 0.00 0.00 50 1010.7
20260506073020 43 337 0.0 0.0 0.00 0.00 0.00 50 1010.8
20260506072519 42 337 0.0 0.0 0.00 0.00 0.00 50 1010.8
20260506072018 42 337 0.0 0.0 0.00 0.00 0.00 51 1010.8
20260506071516 42 329 0.0 0.0 0.00 0.00 0.00 50 1010.8
20260506071014 42 355 0.0 0.0 0.00 0.00 0.00 53 1010.8
20260506070512 42 33 0.0 0.0 0.00 0.00 0.00 53 1010.8
20260506062059 36 19 0.0 0.0 0.00 0.00 0.00 65 1010.9
20260506061557 36 5 0.0 0.0 0.00 0.00 0.00 65 1010.8
20260506061055 35 13 0.0 0.0 0.00 0.00 0.00 69 1010.9
20260506060555 34 360 0.0 0.0 0.00 0.00 0.00 68 1010.8
20260506051046 28 278 0.0 0.0 0.00 0.00 0.00 78 1011.1
20260506050548 28 278 0.0 0.0 0.00 0.00 0.00 79 1011.0
20260506050146 27 304 0.0 0.0 0.00 0.00 0.00 81 1011.1
20260506045044 27 304 0.0 0.0 0.00 0.00 0.00 80 1011.1
20260506044546 27 304 0.0 0.0 0.00 0.00 0.00 80 1011.1
20260506044044 28 304 0.0 0.0 0.00 0.00 0.00 79 1011.1
20260506043543 28 304 0.0 0.0 0.00 0.00 0.00 79 1011.1
20260506043043 28 304 0.0 0.0 0.00 0.00 0.00 79 1011.1
20260506042543 28 304 0.0 0.0 0.00 0.00 0.00 79 1011.1
20260506042044 28 304 0.0 0.0 0.00 0.00 0.00 78 1011.1
20260506041556 28 304 0.0 0.0 0.00 0.00 0.00 79 1011.0
20260506041041 27 319 0.0 0.0 0.00 0.00 0.00 82 1011.0
20260506040539 26 52 0.0 0.0 0.00 0.00 0.00 83 1011.0
20260506040039 27 52 0.0 0.0 0.00 0.00 0.00 82 1011.0
20260506035541 27 52 0.0 0.0 0.00 0.00 0.00 81 1010.9
20260506035039 27 52 0.0 0.0 0.00 0.00 0.00 81 1010.9
20260506034549 27 52 0.0 0.0 0.00 0.00 0.00 81 1010.9
20260506034037 27 52 0.0 0.0 0.00 0.00 0.00 81 1010.9
20260506033537 27 52 0.0 0.0 0.00 0.00 0.00 82 1010.9
20260506033038 27 52 0.0 0.0 0.00 0.00 0.00 82 1010.9
20260506032538 27 52 0.0 0.0 0.00 0.00 0.00 82 1010.9
20260506032035 26 52 0.0 0.0 0.00 0.00 0.00 82 1010.8
20260506031534 27 52 0.0 0.0 0.00 0.00 0.00 81 1010.8
20260506031035 27 52 0.0 0.0 0.00 0.00 0.00 81 1010.9
20260506030532 27 52 0.0 0.0 0.00 0.00 0.00 81 1010.8
20260506030036 27 52 0.0 0.0 0.00 0.00 0.00 81 1010.8
20260506025533 27 52 0.0 0.0 0.00 0.00 0.00 80 1010.8
20260506025030 27 52 0.0 0.0 0.00 0.00 0.00 80 1010.8
20260506024530 27 52 0.0 0.0 0.00 0.00 0.00 79 1010.8
20260506024028 28 52 0.0 0.0 0.00 0.00 0.00 79 1010.8
20260506023526 28 52 0.0 0.0 0.00 0.00 0.00 79 1010.8
20260506023026 28 52 0.0 0.0 0.00 0.00 0.00 78 1010.8
20260506022525 28 52 0.0 0.0 0.00 0.00 0.00 78 1010.7
20260506022025 29 52 0.0 0.0 0.00 0.00 0.00 77 1010.8
20260506021524 29 52 0.0 0.0 0.00 0.00 0.00 76 1010.8
20260506021024 29 52 0.0 0.0 0.00 0.00 0.00 76 1010.8
20260506020526 29 52 0.0 0.0 0.00 0.00 0.00 77 1010.8
20260506020023 29 52 0.0 0.0 0.00 0.00 0.00 77 1010.7
20260506015522 29 52 0.0 0.0 0.00 0.00 0.00 76 1010.8
20260506015022 29 52 0.0 0.0 0.00 0.00 0.00 77 1010.7
20260506014522 29 52 0.0 0.0 0.00 0.00 0.00 78 1010.7
20260506014020 29 52 0.0 0.0 0.00 0.00 0.00 76 1010.6
20260506013519 29 52 0.0 0.0 0.00 0.00 0.00 76 1010.6
20260506013035 29 52 0.0 0.0 0.00 0.00 0.00 76 1010.7
20260506012518 29 52 0.0 0.0 0.00 0.00 0.00 75 1010.6
20260506012017 30 52 0.0 0.0 0.00 0.00 0.00 74 1010.5
20260506011524 30 52 0.0 0.0 0.00 0.00 0.00 74 1010.5
20260506011014 30 52 0.0 0.0 0.00 0.00 0.00 73 1010.5
20260506010513 31 52 0.0 0.0 0.00 0.00 0.00 72 1010.4
20260506010013 31 52 0.0 0.0 0.00 0.00 0.00 70 1010.4
20260506005511 31 52 0.0 0.0 0.00 0.00 0.00 70 1010.4
20260506005013 31 52 0.0 0.0 0.00 0.00 0.00 71 1010.4
20260506004511 31 52 0.0 0.0 0.00 0.00 0.00 71 1010.3
20260506004011 31 52 0.0 0.0 0.00 0.00 0.00 71 1010.3
20260506003509 31 52 0.0 0.0 0.00 0.00 0.00 70 1010.3
20260506003008 31 52 0.0 0.0 0.00 0.00 0.00 69 1010.3
20260506002507 32 53 0.0 0.0 0.00 0.00 0.00 68 1010.3
20260506002007 32 34 0.0 0.0 0.00 0.00 0.00 68 1010.2
20260506001506 33 34 0.0 0.0 0.00 0.00 0.00 67 1010.2
20260506001006 33 34 0.0 0.0 0.00 0.00 0.00 67 1010.2
20260506000504 32 34 0.0 0.0 0.00 0.00 0.00 68 1010.2
20260506000004 32 44 0.0 0.0 0.00 0.00 0.00 69 1010.2
20260505235503 32 44 0.0 0.0 0.00 0.00 0.00 71 1010.2
20260505235003 32 44 0.0 0.0 0.00 0.00 0.00 70 1010.2
20260505234503 32 44 0.0 0.0 0.00 0.00 0.00 70 1010.2
20260505234002 33 44 0.0 0.0 0.00 0.00 0.00 68 1010.2
20260505233559 33 44 0.0 0.0 0.00 0.00 0.00 67 1010.2
20260505233059 33 44 0.0 0.0 0.00 0.00 0.00 67 1010.1
20260505232559 33 44 0.0 0.0 0.00 0.00 0.00 67 1010.1
20260505232059 33 44 0.0 0.0 0.00 0.00 0.00 66 1010.0
20260505231558 33 44 0.0 0.0 0.00 0.00 0.00 66 1010.1
20260505231057 33 44 0.0 0.0 0.00 0.00 0.00 66 1010.1
20260505230557 34 44 0.0 1.0 0.00 0.00 0.00 66 1010.0
20260505230121 34 44 0.0 1.0 0.00 0.00 0.00 66 1010.0
20260505225557 33 44 0.0 0.0 0.00 0.00 0.00 66 1010.1
20260505225159 33 44 0.0 0.0 0.00 0.00 0.00 66 1010.1
20260505224556 33 44 0.0 0.0 0.00 0.00 0.00 66 1010.0
20260505224055 33 44 0.0 0.0 0.00 0.00 0.00 67 1010.0
20260505223556 33 44 0.0 0.0 0.00 0.00 0.00 67 1010.1
20260505223057 33 44 0.0 0.0 0.00 0.00 0.00 67 1010.1
20260505222556 33 44 0.0 0.0 0.00 0.00 0.00 67 1010.1
20260505222054 33 44 0.0 0.0 0.00 0.00 0.00 67 1010.1
20260505221557 33 44 0.0 0.0 0.00 0.00 0.00 68 1010.1
20260505221050 34 44 0.0 0.0 0.00 0.00 0.00 66 1010.0
20260505220549 34 44 0.0 0.0 0.00 0.00 0.00 66 1010.0
20260505220048 34 44 0.0 0.0 0.00 0.00 0.00 64 1010.0
20260505215534 35 44 0.0 0.0 0.00 0.00 0.00 64 1009.9
20260505215030 35 44 0.0 0.0 0.00 0.00 0.00 63 1009.8
20260505214535 36 44 0.0 0.0 0.00 0.00 0.00 61 1009.9
20260505214032 36 44 0.0 0.0 0.00 0.00 0.00 60 1009.8
20260505213529 36 44 0.0 0.0 0.00 0.00 0.00 59 1009.8
20260505213033 36 44 0.0 5.0 0.00 0.00 0.00 59 1009.7
20260505212529 37 45 0.0 5.0 0.00 0.00 0.00 57 1009.8
20260505212030 36 40 0.0 0.0 0.00 0.00 0.00 58 1009.8
20260505211528 37 40 0.0 1.0 0.00 0.00 0.00 57 1009.7
20260505211028 37 40 0.0 1.0 0.00 0.00 0.00 57 1009.6
20260505210528 37 30 0.0 0.0 0.00 0.00 0.00 56 1009.6
20260505210025 38 46 0.0 0.0 0.00 0.00 0.00 54 1009.6
20260505205526 38 46 0.0 0.0 0.00 0.00 0.00 54 1009.6
20260505205026 38 46 0.0 0.0 0.00 0.00 0.00 54 1009.6
20260505204526 39 46 0.0 0.0 0.00 0.00 0.00 54 1009.5
20260505204023 39 46 0.0 0.0 0.00 0.00 0.00 51 1009.3
20260505203523 39 46 0.0 0.0 0.00 0.00 0.00 51 1009.2
20260505203023 39 355 0.0 0.0 0.00 0.00 0.00 51 1009.2
20260505202524 39 351 0.0 0.0 0.00 0.00 0.00 51 1009.1
20260505202024 39 360 0.0 0.0 0.00 0.00 0.00 52 1009.1
20260505201523 39 19 0.0 0.0 0.00 0.00 0.00 53 1009.2
20260505201023 38 20 0.0 0.0 0.00 0.00 0.00 55 1009.1
20260505200521 38 61 0.0 0.0 0.00 0.00 0.00 54 1009.1
20260505200033 39 9 0.0 0.0 0.00 0.00 0.00 53 1009.1
20260505195519 40 9 0.0 0.0 0.00 0.00 0.00 51 1009.0
20260505195119 41 9 0.0 0.0 0.00 0.00 0.00 49 1008.9
20260505194519 41 9 0.0 0.0 0.00 0.00 0.00 48 1008.9
20260505194018 42 9 0.0 0.0 0.00 0.00 0.00 46 1008.8
20260505193518 43 9 0.0 0.0 0.00 0.00 0.00 44 1008.8
20260505193017 43 9 0.0 0.0 0.00 0.00 0.00 43 1008.7
20260505192516 43 319 0.0 4.0 0.00 0.00 0.00 43 1008.6
20260505192015 43 344 0.0 4.0 0.00 0.00 0.00 42 1008.5
20260505191524 43 17 0.0 1.0 0.00 0.00 0.00 43 1008.5
20260505191014 44 344 0.0 1.0 0.00 0.00 0.00 42 1008.3
20260505190518 44 331 0.0 0.0 0.00 0.00 0.00 41 1008.2
20260505190012 44 329 0.0 3.0 0.00 0.00 0.00 41 1008.2
20260505185512 45 336 0.0 4.0 0.00 0.00 0.00 40 1008.2
20260505185012 45 325 0.0 11.0 0.00 0.00 0.00 39 1008.1
20260505184511 45 335 0.0 11.0 0.00 0.00 0.00 39 1008.2
20260505184010 45 325 0.0 2.0 0.00 0.00 0.00 38 1008.1
20260505183511 46 260 0.0 10.0 0.00 0.00 0.00 36 1008.0
20260505183012 46 312 0.0 10.0 0.00 0.00 0.00 37 1008.0
20260505182511 46 334 0.0 2.0 0.00 0.00 0.00 38 1008.0
20260505182010 46 329 0.0 2.0 0.00 0.00 0.00 39 1007.9
20260505181509 47 346 0.0 0.0 0.00 0.00 0.00 41 1007.9
20260505181008 47 324 0.0 1.0 0.00 0.00 0.00 39 1007.9
20260505180508 47 349 0.0 6.0 0.00 0.00 0.00 40 1007.8
20260505180008 47 337 0.0 6.0 0.00 0.00 0.00 40 1007.7
20260505175510 47 324 0.0 8.0 0.00 0.00 0.00 41 1007.7
20260505175008 48 355 0.0 8.0 0.00 0.00 0.00 39 1007.6
20260505174507 48 278 0.0 0.0 0.00 0.00 0.00 39 1007.6
20260505174010 48 300 0.0 2.0 0.00 0.00 0.00 39 1007.6
20260505173510 48 304 0.0 2.0 0.00 0.00 0.00 37 1007.5
20260505173011 48 299 0.0 1.0 0.00 0.00 0.00 37 1007.5
20260505172507 49 290 0.0 0.0 0.00 0.00 0.00 38 1007.4
20260505172007 49 340 0.0 0.0 0.00 0.00 0.00 38 1007.4
20260505171508 49 270 0.0 1.0 0.00 0.00 0.00 39 1007.4
20260505171007 49 263 0.0 1.0 0.00 0.00 0.00 39 1007.2